Wind_Speed
16 14 13 12 14 14 10 9 8 7 8 8 8 9 9 8 8 7 6 8 9 10 10 10 9 8 7 8 9 10 10 12 14 13 14 13 12 13 14 14 17 19 19 20 21 22 24 26 23
14 12 12 11 10 10 10 8 6 7 6 7 7 7 8 8 8 7 6 8 9 10 8 7 8 6 7 8 10 11 13 14 15 15 14 13 14 15 15 15 17 18 20 22 23 24 25 24 27
9 10 8 9 11 7 9 7 7 6 5 6 6 7 7 7 7 6 7 9 9 9 10 8 6 5 6 7 10 11 14 16 16 16 14 14 16 17 16 17 18 19 22 22 23 23 24 25 29
12 14 14 13 13 11 7 6 7 5 4 5 6 6 6 6 7 7 7 6 8 5 8 5 4 3 5 8 9 12 15 17 17 16 14 16 17 16 16 17 19 20 22 21 22 23 23 26 28
15 21 8 10 8 9 6 5 4 3 4 5 4 2 4 5 7 7 6 5 5 8 5 4 3 2 6 8 10 14 17 18 17 15 15 18 18 16 16 17 18 20 20 19 20 20 22 23 25
6 20 12 7 8 6 6 5 3 3 3 3 2 5 7 6 6 6 6 6 5 5 5 4 3 5 9 12 14 16 18 18 17 15 16 19 17 16 15 16 17 18 17 18 19 19 20 21 22
11 20 12 7 8 6 5 4 3 2 4 3 4 6 7 6 5 5 6 6 6 5 5 4 5 6 11 15 17 18 18 18 17 15 17 18 17 15 15 15 16 17 16 16 17 17 17 20 19
21 13 12 3 5 6 5 3 3 3 3 2 2 5 6 7 5 6 7 7 7 8 6 6 7 7 11 15 17 17 18 17 15 15 16 17 16 15 14 13 13 14 13 12 13 14 14 15 15
7 15 7 4 5 3 3 3 3 3 3 3 4 7 8 9 6 7 9 9 9 8 7 8 9 8 9 11 13 15 15 14 13 13 16 16 14 13 11 10 9 9 8 8 9 11 11 13 13
5 17 6 6 4 4 3 3 4 5 2 2 3 6 7 10 7 7 10 10 9 9 9 9 11 11 9 9 10 11 13 13 12 12 15 17 13 10 9 8 7 4 6 8 8 6 8 9 12
6 5 1 4 6 2 2 1 2 4 4 1 5 6 7 7 6 7 9 10 10 9 10 9 10 13 11 10 10 8 8 9 9 12 8 16 12 8 6 7 9 3 4 8 3 6 6 10 9
1 7 2 3 1 3 2 2 1 1 2 2 3 4 4 4 5 6 7 8 9 10 10 11 9 10 12 12 10 9 9 8 6 7 9 11 16 15 9 9 6 7 6 6 3 10 2 9 8
9 1 2 4 3 2 1 1 2 2 2 2 3 4 4 2 2 3 4 5 8 8 9 9 9 9 11 14 14 12 9 6 7 4 7 7 11 8 6 6 4 9 6 5 1 11 6 4 4
11 2 3 4 2 4 3 3 2 1 3 1 1 3 3 2 0 2 3 4 4 6 6 7 8 8 9 11 11 11 14 4 10 9 10 10 7 5 6 6 8 13 13 1 2 5 3 2 3
2 2 3 3 2 3 4 6 5 3 2 3 3 1 1 1 2 3 4 4 4 4 5 5 6 8 10 10 9 8 11 11 10 10 9 8 9 8 8 8 6 6 12 7 6 6 5 5 6
6 7 7 3 4 8 6 6 3 2 1 3 4 4 3 2 1 3 5 6 6 5 5 5 6 7 7 9 10 8 7 11 10 9 10 10 10 9 7 7 7 8 9 10 6 15 8 17 8
11 9 4 7 6 16 9 5 4 2 2 4 5 5 5 4 3 3 6 8 9 8 8 7 7 7 8 9 9 10 10 12 9 9 11 12 11 11 11 11 10 12 11 10 9 10 12 12 11
18 4 1 8 10 4 12 12 6 5 6 1 3 4 5 6 6 7 6 7 10 10 9 10 10 11 12 12 13 13 14 15 15 15 15 15 15 15 15 14 15 17 15 16 14 14 11 12 11
7 5 1 12 5 8 6 9 7 8 7 8 5 3 5 7 8 8 7 7 9 10 11 12 12 13 13 14 14 15 16 17 18 19 18 15 18 19 19 20 20 20 18 15 19 15 15 15 12
4 5 1 12 6 7 7 11 10 7 9 7 5 7 7 6 8 9 10 7 7 10 11 11 12 14 15 15 15 16 16 18 18 20 20 21 20 20 21 20 20 22 21 22 21 21 20 22 17
27 10 10 8 12 13 12 11 10 1 7 12 10 8 9 8 7 7 10 11 10 9 11 11 10 11 14 16 17 19 20 21 22 24 25 24 24 28 25 24 28 27 27 27 27 27 26 24 25
19 20 7 5 4 10 9 15 13 20 15 11 7 7 6 11 13 11 9 10 11 12 13 14 14 14 15 16 17 20 24 27 30 29 28 29 27 33 30 29 28 31 29 32 32 32 28 31 27
8 18 2 4 8 16 28 22 18 15 14 14 17 8 12 12 13 15 15 13 13 13 11 14 17 16 13 16 18 18 22 26 29 30 31 23 30 37 32 32 32 35 34 33 34 34 34 34 31
16 10 8 12 9 18 31 28 20 26 13 22 6 21 17 15 15 17 18 18 17 19 20 18 15 20 22 19 18 19 22 29 31 37 29 37 31 36 40 42 40 37 38 37 38 36 40 29 37
16 7 8 23 27 19 25 35 21 26 8 5 18 29 29 24 22 19 18 21 21 20 22 22 21 20 25 24 22 25 27 29 31 32 37 36 37 41 38 45 43 42 41 43 42 40 42 43 37
21 15 13 15 16 32 37 37 18 32 9 8 24 23 26 21 23 23 25 25 27 23 23 25 25 22 21 21 26 29 32 33 38 39 43 44 43 43 41 40 33 44 47 47 47 46 43 43 45
15 18 14 24 22 20 27 35 23 23 19 24 16 11 17 24 25 29 27 25 32 32 31 32 27 22 23 26 27 30 36 40 32 47 46 44 39 42 35 43 43 41 45 48 42 51 47 48 51
26 21 21 15 23 26 13 21 36 33 38 32 10 6 21 21 25 28 28 30 31 32 32 31 27 31 34 34 31 35 39 42 50 46 47 48 47 46 39 40 34 29 34 38 28 38 35 37 34
21 18 14 13 16 18 16 15 26 35 32 34 30 41 27 32 32 29 26 29 32 32 29 30 32 35 36 36 33 35 37 38 35 35 33 34 34 30 32 28 24 25 26 25 37 40 32 35 36
19 18 18 21 19 17 17 18 27 38 38 39 43 34 32 34 34 34 29 30 31 33 33 34 38 37 39 37 37 37 37 37 37 37 30 28 28 29 30 28 27 28 23 22 24 21 23 22 33
Wind_Direction
126 129 128 119 108 94 112 97 96 89 85 78 79 74 67 58 52 56 67 86 104 114 118 116 115 111 115 115 112 106 109 105 111 116 118 112 99 95 90 90 89 91 93 90 85 81 74 68 64
130 145 122 120 113 115 115 109 87 89 85 81 77 78 66 52 45 53 67 95 100 104 99 113 114 97 98 104 111 114 114 112 119 125 120 108 103 99 95 97 98 97 91 87 84 80 75 72 66
141 101 141 149 105 104 113 99 83 81 94 93 93 89 67 48 46 47 66 97 110 106 100 106 108 120 120 119 119 122 117 120 125 125 120 110 108 106 104 103 99 94 91 88 86 83 77 73 69
136 113 96 96 98 134 119 98 94 112 98 84 89 89 65 58 43 36 56 94 105 108 101 96 91 122 140 134 133 132 125 127 128 127 117 114 111 113 110 108 101 97 93 90 86 83 80 74 74
142 109 103 102 107 115 95 123 110 92 78 101 102 77 47 51 45 40 54 61 67 92 72 56 25 128 138 127 139 136 135 133 130 125 120 120 121 120 115 108 101 95 94 91 88 84 78 74 73
160 98 121 119 128 134 103 120 135 84 92 103 55 1 1 28 40 43 51 67 87 102 66 47 81 108 117 129 140 141 139 132 133 130 129 128 127 124 120 106 100 95 93 89 87 81 77 74 71
86 109 100 131 121 129 100 83 114 92 105 88 38 10 2 11 32 60 51 67 95 102 63 54 108 114 123 136 140 144 136 138 137 137 135 135 130 130 122 112 106 100 94 85 83 82 80 75 68
137 118 120 151 141 124 109 113 113 121 100 67 2 26 21 8 31 60 62 72 111 114 74 98 113 121 132 141 145 144 141 143 142 139 140 143 141 141 132 127 114 107 98 92 92 92 84 74 64
114 128 158 126 93 129 148 123 138 135 92 33 26 32 34 20 33 62 68 88 113 111 86 113 118 124 127 139 143 146 145 145 145 145 145 150 150 148 139 130 121 111 107 97 92 92 82 76 67
96 96 116 156 151 184 170 155 159 145 105 36 59 55 46 34 37 59 80 94 109 108 100 117 126 120 117 122 136 144 148 149 147 149 151 151 157 146 137 146 127 133 121 114 94 71 75 77 78
131 119 135 188 263 304 191 219 188 163 154 4 9 39 46 50 46 63 84 99 106 105 112 113 130 127 129 128 127 135 142 150 153 171 123 143 140 127 145 170 137 110 56 42 79 96 78 68 85
308 77 311 322 7 250 239 226 57 97 78 25 5 8 59 48 56 65 77 89 93 101 113 125 131 138 144 142 137 138 144 147 141 160 122 151 153 129 218 243 59 26 319 163 318 4 58 54 89
129 231 101 47 45 118 220 135 3 357 357 9 2 348 358 51 75 77 89 86 99 102 117 133 142 148 159 157 151 145 142 148 152 145 141 225 96 178 68 315 69 227 196 45 355 310 359 94 111
85 274 81 68 111 151 194 182 162 241 282 10 28 357 339 351 227 167 132 127 113 114 121 129 141 151 164 170 166 156 148 166 177 167 162 175 201 174 150 204 278 291 325 74 45 276 323 27 36
206 273 74 66 293 254 216 214 202 195 247 281 263 286 309 327 290 230 195 176 174 154 140 146 148 151 164 174 179 178 176 186 195 199 208 206 197 196 190 204 212 208 252 311 284 299 310 317 306
168 225 238 92 308 283 289 223 231 158 241 261 254 263 281 335 308 265 234 221 206 199 186 175 177 176 176 187 193 209 217 215 212 219 230 240 245 241 237 238 230 229 230 247 262 273 306 310 282
196 267 272 8 324 290 302 309 43 27 49 262 257 269 284 297 291 265 253 243 216 214 209 204 204 215 210 210 217 232 238 249 245 255 258 261 258 257 253 257 260 266 269 259 272 270 269 271 280
239 118 157 125 291 293 321 323 322 312 12 32 265 253 258 277 290 296 275 242 242 220 223 228 223 222 230 232 232 235 246 259 264 267 270 276 275 273 275 274 274 272 279 287 272 269 266 264 276
42 19 255 297 273 287 248 295 279 331 4 11 344 283 257 259 275 286 293 279 250 242 227 232 243 242 244 250 251 252 253 255 263 267 270 270 275 278 280 279 282 280 275 255 275 268 265 266 269
274 254 258 256 285 311 295 315 319 330 346 356 333 357 350 307 272 276 284 281 269 257 256 248 247 254 256 257 258 260 265 268 270 274 281 280 279 275 274 277 263 275 268 271 268 271 273 274 268
269 185 234 233 274 288 299 283 263 315 216 312 326 332 332 335 332 304 289 286 280 273 274 273 267 268 261 262 266 267 272 280 283 283 277 274 274 271 267 266 271 271 270 268 268 272 273 267 264
246 323 245 213 18 299 318 335 275 229 197 271 307 318 319 323 318 313 311 305 299 292 286 276 277 281 281 278 274 274 278 281 275 279 278 279 278 277 273 269 268 270 267 268 269 268 273 277 279
258 305 356 4 14 329 291 272 284 297 258 192 294 309 322 321 319 313 311 302 285 285 283 295 296 287 287 278 269 270 278 280 283 282 280 272 278 277 253 270 271 271 271 267 269 271 269 271 278
277 304 19 306 264 245 275 281 279 275 272 261 315 305 310 310 314 316 310 310 310 298 290 289 285 296 291 287 292 288 286 284 283 292 285 262 289 285 289 278 272 266 270 270 267 267 272 269 271
270 283 283 293 301 247 284 283 288 298 340 246 284 293 297 298 294 298 296 296 294 291 299 294 296 291 288 294 290 293 300 298 292 286 290 281 284 289 283 297 288 261 268 270 272 272 270 270 268
263 250 269 266 293 297 307 313 315 315 268 263 276 273 278 283 288 294 287 295 286 292 291 287 288 294 292 292 303 303 305 297 292 284 281 278 280 285 280 311 315 303 290 263 267 269 272 276 276
259 265 256 266 277 282 294 301 304 314 218 231 213 257 279 283 285 289 288 284 282 285 285 287 293 289 288 287 299 297 292 283 298 297 274 285 281 305 305 318 311 317 313 318 304 274 267 266 271
296 265 260 249 272 266 253 290 302 294 288 275 325 99 315 304 284 277 274 276 276 281 286 292 290 289 288 291 290 294 300 310 309 314 313 310 312 307 312 317 320 319 312 314 293 309 283 269 283
278 289 292 291 264 279 290 295 288 288 287 302 295 304 303 294 293 278 267 271 275 277 279 278 276 277 284 286 290 289 295 300 309 310 309 309 314 310 311 307 306 304 293 292 292 290 302 274 314
273 268 250 255 259 259 262 270 272 287 286 292 297 300 289 284 283 280 278 280 281 282 281 280 279 284 284 282 285 291 295 296 298 302 306 308 307 303 298 297 292 286 288 287 290 289 294 286 301
Height
5900 5902 5902 5904 5902 5904 5905 5905 5905 5906 5908 5907 5906 5907 5906 5906 5905 5907 5905 5905 5905 5905 5905 5906 5906 5905 5905 5905 5906 5906 5906 5906 5906 5907 5907 5908 5908 5909 5909 5909 5909 5908 5909 5909 5910 5909 5909 5908 5906
5901 5903 5902 5906 5907 5908 5908 5908 5908 5909 5910 5909 5909 5908 5908 5908 5907 5907 5907 5906 5906 5906 5906 5906 5905 5906 5906 5906 5906 5907 5907 5907 5907 5908 5909 5910 5910 5911 5911 5912 5911 5911 5912 5913 5913 5912 5911 5910 5910
5902 5910 5908 5906 5906 5908 5911 5911 5911 5911 5911 5911 5910 5910 5910 5910 5909 5909 5908 5909 5908 5908 5907 5907 5906 5906 5906 5906 5907 5908 5908 5908 5909 5910 5911 5911 5912 5913 5914 5915 5914 5915 5916 5915 5915 5915 5914 5914 5913
5902 5910 5910 5906 5910 5911 5913 5913 5912 5913 5913 5913 5913 5913 5912 5911 5911 5911 5911 5911 5910 5909 5909 5908 5907 5907 5906 5907 5908 5909 5910 5909 5910 5911 5913 5914 5915 5916 5917 5917 5918 5918 5918 5918 5918 5918 5917 5917 5916
5894 5894 5907 5909 5913 5914 5914 5914 5915 5916 5916 5915 5915 5915 5914 5913 5912 5912 5912 5911 5911 5911 5910 5910 5909 5908 5908 5909 5910 5911 5911 5911 5912 5914 5915 5916 5917 5918 5920 5921 5921 5921 5922 5922 5921 5921 5920 5920 5919
5889 5887 5908 5913 5915 5916 5916 5916 5916 5917 5918 5917 5917 5917 5916 5914 5913 5913 5912 5912 5911 5912 5911 5910 5910 5910 5910 5911 5912 5912 5912 5914 5914 5916 5917 5918 5919 5921 5923 5923 5924 5924 5925 5925 5924 5924 5923 5923 5921
5901 5908 5911 5914 5917 5918 5918 5918 5919 5919 5919 5919 5919 5919 5918 5916 5915 5914 5913 5913 5913 5913 5913 5912 5912 5912 5912 5913 5914 5914 5915 5916 5917 5918 5920 5921 5922 5924 5925 5925 5926 5927 5927 5927 5927 5926 5926 5926 5922
5898 5910 5913 5915 5918 5920 5920 5920 5920 5921 5921 5921 5921 5920 5920 5918 5916 5914 5914 5914 5914 5914 5914 5914 5915 5915 5916 5916 5916 5917 5918 5919 5921 5922 5923 5924 5925 5925 5926 5927 5929 5930 5930 5931 5930 5929 5928 5927 5924
5914 5913 5914 5915 5919 5921 5921 5922 5922 5922 5922 5922 5922 5922 5921 5920 5918 5916 5915 5915 5915 5915 5915 5916 5917 5918 5919 5919 5920 5920 5921 5924 5925 5924 5924 5926 5927 5928 5929 5930 5932 5933 5933 5933 5934 5933 5931 5929 5928
5913 5912 5918 5919 5920 5921 5923 5923 5923 5923 5923 5923 5923 5922 5921 5920 5920 5918 5917 5917 5917 5917 5917 5919 5919 5920 5921 5922 5923 5923 5925 5927 5926 5927 5925 5925 5929 5932 5933 5931 5932 5931 5930 5932 5934 5937 5935 5935 5932
5912 5918 5921 5921 5922 5923 5924 5925 5924 5924 5924 5924 5924 5924 5923 5922 5921 5921 5920 5919 5919 5919 5920 5921 5922 5923 5924 5925 5926 5927 5929 5931 5930 5925 5931 5927 5931 5935 5933 5930 5929 5931 5932 5937 5933 5932 5936 5933 5936
5921 5919 5924 5923 5924 5924 5926 5926 5926 5926 5925 5925 5925 5924 5924 5924 5923 5923 5923 5922 5922 5922 5923 5923 5924 5925 5926 5927 5929 5929 5931 5933 5931 5934 5934 5922 5927 5937 5930 5903 5927 5938 5917 5933 5931 5927 5936 5931 5936
5919 5924 5925 5924 5925 5925 5926 5926 5926 5926 5926 5926 5925 5925 5925 5925 5925 5925 5925 5925 5925 5925 5925 5926 5926 5927 5928 5929 5929 5931 5933 5936 5937 5935 5933 5918 5926 5944 5938 5925 5937 5934 5933 5939 5931 5936 5933 5937 5936
5923 5927 5925 5925 5927 5926 5927 5926 5926 5926 5926 5926 5925 5925 5925 5925 5926 5926 5926 5927 5927 5927 5928 5929 5929 5930 5931 5932 5933 5934 5937 5930 5938 5938 5940 5939 5937 5940 5941 5941 5933 5930 5936 5939 5936 5944 5942 5938 5935
5927 5928 5926 5926 5927 5927 5927 5926 5924 5925 5926 5927 5926 5925 5925 5925 5926 5927 5926 5928 5928 5929 5930 5931 5931 5932 5932 5934 5936 5936 5937 5938 5938 5938 5939 5940 5940 5939 5940 5941 5941 5941 5940 5934 5939 5941 5940 5937 5936
5929 5928 5926 5927 5926 5926 5928 5927 5928 5925 5925 5927 5927 5927 5926 5926 5926 5927 5927 5928 5929 5930 5931 5932 5933 5934 5935 5936 5937 5938 5939 5938 5939 5939 5940 5940 5940 5940 5940 5941 5941 5941 5941 5941 5940 5937 5939 5938 5935
5927 5928 5927 5927 5927 5922 5928 5927 5924 5924 5923 5926 5927 5927 5927 5927 5926 5926 5927 5927 5928 5930 5931 5933 5934 5936 5936 5937 5938 5939 5939 5938 5940 5940 5941 5941 5940 5939 5939 5939 5938 5938 5938 5937 5937 5936 5936 5935 5934
5923 5926 5926 5924 5929 5928 5927 5923 5924 5925 5923 5926 5926 5925 5926 5927 5926 5927 5927 5927 5928 5929 5931 5932 5933 5934 5935 5936 5938 5939 5939 5938 5939 5939 5940 5940 5940 5939 5938 5938 5937 5936 5936 5935 5934 5933 5933 5933 5932
5924 5925 5924 5927 5930 5930 5929 5928 5927 5928 5924 5924 5925 5924 5924 5924 5926 5926 5927 5928 5928 5929 5930 5931 5932 5933 5935 5935 5937 5938 5938 5938 5937 5937 5936 5939 5937 5937 5938 5936 5935 5935 5928 5920 5932 5930 5930 5929 5930
5929 5926 5925 5928 5928 5929 5930 5929 5924 5924 5924 5925 5924 5923 5923 5924 5925 5926 5926 5926 5927 5928 5929 5929 5930 5931 5932 5933 5934 5934 5935 5935 5936 5936 5937 5934 5933 5932 5932 5932 5929 5931 5930 5929 5928 5927 5927 5927 5928
5916 5918 5922 5927 5928 5929 5927 5927 5926 5924 5923 5922 5921 5922 5922 5923 5925 5926 5925 5926 5926 5927 5928 5928 5928 5929 5930 5931 5932 5932 5932 5932 5933 5931 5931 5930 5929 5927 5926 5925 5926 5926 5927 5926 5923 5922 5922 5922 5921
5923 5920 5926 5925 5924 5925 5926 5924 5923 5914 5911 5921 5925 5922 5921 5922 5922 5924 5924 5924 5924 5925 5926 5925 5926 5926 5927 5928 5929 5929 5929 5927 5922 5923 5922 5923 5924 5921 5922 5920 5917 5918 5920 5919 5918 5916 5916 5916 5914
5925 5925 5923 5925 5922 5929 5920 5917 5915 5911 5913 5909 5921 5920 5918 5920 5920 5921 5922 5923 5922 5922 5925 5926 5924 5923 5924 5923 5924 5925 5924 5921 5921 5922 5914 5897 5912 5912 5910 5912 5910 5911 5913 5911 5909 5911 5908 5910 5911
5922 5923 5922 5922 5927 5926 5919 5912 5909 5917 5920 5922 5915 5918 5918 5918 5918 5918 5918 5918 5919 5919 5920 5921 5922 5921 5920 5921 5920 5920 5920 5916 5915 5904 5908 5885 5902 5903 5906 5907 5905 5903 5904 5904 5903 5902 5902 5901 5901
5924 5925 5926 5920 5921 5913 5915 5917 5912 5914 5915 5917 5919 5917 5917 5917 5917 5918 5917 5915 5914 5916 5916 5916 5917 5918 5916 5915 5914 5911 5912 5910 5908 5907 5904 5901 5899 5899 5889 5899 5892 5894 5895 5895 5895 5896 5895 5896 5894
5922 5922 5921 5922 5923 5917 5913 5912 5909 5906 5905 5908 5911 5911 5912 5912 5913 5913 5912 5911 5910 5913 5911 5910 5911 5913 5910 5909 5909 5908 5906 5902 5899 5896 5894 5893 5891 5893 5891 5894 5890 5890 5883 5884 5884 5885 5884 5886 5886
5919 5919 5920 5918 5918 5920 5917 5904 5908 5906 5898 5894 5901 5909 5911 5910 5909 5910 5909 5910 5906 5905 5905 5904 5906 5906 5903 5903 5902 5900 5897 5894 5891 5890 5887 5885 5885 5883 5884 5885 5882 5879 5877 5876 5874 5874 5875 5875 5874
5910 5911 5911 5913 5912 5912 5916 5913 5899 5903 5893 5897 5893 5896 5908 5907 5905 5905 5905 5904 5903 5901 5900 5899 5899 5899 5898 5897 5896 5892 5888 5878 5880 5880 5880 5878 5874 5873 5871 5872 5870 5867 5866 5866 5865 5864 5864 5862 5864
5910 5907 5908 5909 5911 5911 5914 5916 5902 5897 5898 5896 5896 5894 5898 5901 5900 5900 5899 5897 5895 5895 5894 5893 5893 5892 5890 5889 5888 5884 5881 5879 5877 5875 5874 5872 5866 5863 5862 5862 5861 5860 5859 5855 5859 5857 5853 5855 5854
5907 5905 5906 5907 5909 5909 5910 5915 5899 5891 5894 5895 5888 5887 5894 5895 5895 5894 5893 5892 5889 5887 5888 5887 5885 5884 5882 5881 5880 5877 5874 5872 5871 5870 5867 5864 5860 5859 5857 5855 5854 5854 5851 5848 5846 5844 5843 5840 5843